Weather History for College Station, TX

Change the Weather History Date:

Friday, May 10, 2013

  Actual Average Record
Temperature  
Mean Temperature 76 °F 75 °F  
Max Temperature 84 °F 84 °F 97 °F (2011)
Min Temperature 67 °F 65 °F 48 °F (1961)
Degree Days  
Heating Degree Days 0 0  
Month to date heating degree days 24 0  
Since 1 July heating degree days 1354 1606  
Cooling Degree Days 11 10  
Month to date cooling degree days 45 88  
Year to date cooling degree days 272 327  
Growing Degree Days 24 (Base 50)    
Moisture  
Dew Point 67 °F    
Average Humidity 79    
Maximum Humidity 100    
Minimum Humidity 58    
Precipitation  
Precipitation 1.15 in 0.14 in 2.78 in (1932)
Month to date precipitation 4.43 1.36  
Year to date precipitation 13.97 13.28  
Sea Level Pressure  
Sea Level Pressure 29.93 in    
Wind  
Wind Speed 6 mph (North)    
Max Wind Speed 28 mph    
Max Gust Speed 35 mph    
Visibility 6 miles    
Events Rain , Thunderstorm    
T = Trace of Precipitation, MM = Missing Value Source: NWS Daily Summary

Daily Weather History Graph

Daily Weather History Graph

Search for Another Location

Airport:

Trip Planner

Search our weather history database for the weather conditions in past years. The results will help you decide how hot, cold, wet, or windy it might be!

Date:

Astronomy

May. 10, 2013 Rise Set
Actual Time 6:34 AM CDT 8:09 PM CDT
Civil Twilight 6:08 AM CDT 8:36 PM CDT
Nautical Twilight 5:36 AM CDT 9:07 PM CDT
Astronomical Twilight 5:04 AM CDT 9:40 PM CDT
Moon 6:59 AM CDT (5/10) 8:58 PM CDT (5/10)
Length of Visible Light 14h 28m
Length of Day
13h 35m
New Moon, 0% of the Moon is Illuminated
May 10
New Moon
May 17
First Quarter
May 24
Full
May 31
Last Quarter
Jun 8
New

Hourly Weather History & Observations

Time (CDT) Temp. Heat Index Dew Point Humidity Pressure Visibility Wind Dir Wind Speed Gust Speed Precip Events Conditions
12:53 AM 71.1 °F - 70.0 °F 96% 29.90 in 4.0 mi SSE 12.7 mph - 0.00 in Rain Rain
1:03 AM 71.6 °F - 69.8 °F 94% 29.85 in 3.0 mi SSE 18.4 mph 27.6 mph 0.00 in Rain Rain
1:37 AM 71.6 °F - 71.6 °F 100% 29.85 in 5.0 mi South 13.8 mph 24.2 mph N/A Rain , Thunderstorm Rain
1:53 AM 72.0 °F - 71.1 °F 97% 29.70 in 5.0 mi SE 26.5 mph 34.5 mph 0.00 in Rain Rain
2:53 AM 70.0 °F - 66.0 °F 87% 29.81 in 10.0 mi WNW 11.5 mph - 0.00 in Rain Rain
3:53 AM 66.9 °F - 64.9 °F 93% 29.84 in 10.0 mi SSW 4.6 mph - 0.00 in Rain Rain
4:50 AM 68.0 °F - 64.4 °F 88% 29.87 in 10.0 mi WNW 5.8 mph - 0.00 in Rain Rain
4:53 AM 68.0 °F - 64.9 °F 90% 29.86 in 10.0 mi WNW 5.8 mph - 0.00 in Rain Rain
5:53 AM 69.1 °F - 64.9 °F 87% 29.89 in 10.0 mi North 3.5 mph - 0.00 in Rain Rain
6:16 AM 69.8 °F - 66.2 °F 88% 29.91 in 10.0 mi NNE 3.5 mph - 0.00 in Rain Rain
6:53 AM 68.0 °F - 66.0 °F 93% 29.94 in 2.5 mi NNW 3.5 mph - 0.03 in Rain Rain
6:59 AM 68.0 °F - 66.2 °F 94% 29.95 in 3.0 mi NNW 3.5 mph - 0.00 in Rain Rain
7:13 AM 68.0 °F - 66.2 °F 94% 29.97 in 4.0 mi NW 5.8 mph - 0.00 in Rain Rain
7:27 AM 68.0 °F - 66.2 °F 94% 29.98 in 3.0 mi NNW 6.9 mph - 0.01 in Rain Rain
7:34 AM 68.0 °F - 66.2 °F 94% 29.97 in 2.5 mi NNW 4.6 mph - 0.03 in Rain , Thunderstorm Thunderstorms and Rain
7:44 AM 68.0 °F - 66.2 °F 94% 29.97 in 4.0 mi NW 4.6 mph - 0.03 in Rain , Thunderstorm Thunderstorms and Rain
7:53 AM 68.0 °F - 66.9 °F 96% 29.95 in 5.0 mi NE 3.5 mph - 0.03 in Rain , Thunderstorm Thunderstorms and Rain
8:13 AM 69.8 °F - 66.2 °F 88% 29.94 in 5.0 mi ENE 3.5 mph - 0.00 in Rain Rain
8:42 AM 69.8 °F - 66.2 °F 88% 29.96 in 5.0 mi ENE 3.5 mph - 0.00 in Rain Rain
8:53 AM 69.1 °F - 66.9 °F 93% 29.96 in 4.0 mi Calm Calm - 0.00 in   Overcast
9:04 AM 69.8 °F - 66.2 °F 88% 29.99 in 4.0 mi NW 9.2 mph - N/A Thunderstorm Overcast
9:35 AM 68.0 °F - 66.2 °F 94% 29.99 in 4.0 mi NNW 15.0 mph - 0.01 in Rain , Thunderstorm Light Thunderstorms and Rain
9:40 AM 68.0 °F - 66.2 °F 94% 29.99 in 3.0 mi North 12.7 mph - 0.02 in Rain , Thunderstorm Thunderstorms and Rain
9:53 AM 68.0 °F - 66.0 °F 93% 29.96 in 3.0 mi North 13.8 mph 23.0 mph 0.04 in Rain , Thunderstorm Rain
9:57 AM 68.0 °F - 66.2 °F 94% 29.97 in 4.0 mi North 12.7 mph 21.9 mph 0.00 in Rain Light Rain
10:53 AM 68.0 °F - 66.0 °F 93% 29.92 in 5.0 mi East 11.5 mph - 0.02 in Rain Light Rain
11:03 AM 69.8 °F - 66.2 °F 88% 29.95 in 5.0 mi East 6.9 mph - 0.00 in   Mostly Cloudy
11:10 AM 69.8 °F - 66.2 °F 88% 29.94 in 6.0 mi East 8.1 mph - 0.00 in   Scattered Clouds
11:33 AM 71.6 °F - 68.0 °F 88% 29.91 in 8.0 mi ENE 10.4 mph - 0.00 in   Partly Cloudy
11:53 AM 73.4 °F - 68.0 °F 83% 29.90 in 10.0 mi ENE 13.8 mph - N/A   Clear
12:53 PM 77.0 °F - 68.0 °F 74% 29.90 in 10.0 mi Variable 4.6 mph - N/A   Clear
1:53 PM 81.0 °F 84.1 °F 69.1 °F 67% 29.90 in 10.0 mi Variable 6.9 mph - N/A   Clear
2:53 PM 82.0 °F 85.5 °F 69.1 °F 65% 29.91 in 10.0 mi NNW 6.9 mph - N/A   Mostly Cloudy
3:53 PM 82.9 °F 85.4 °F 66.9 °F 58% 29.88 in 10.0 mi North 10.4 mph - N/A   Mostly Cloudy
4:53 PM 80.6 °F 82.7 °F 66.2 °F 61% 29.88 in 10.0 mi East 5.8 mph - N/A   Overcast
5:53 PM 80.1 °F 82.1 °F 66.0 °F 62% 29.87 in 10.0 mi East 4.6 mph - N/A   Scattered Clouds
6:53 PM 80.1 °F 82.1 °F 66.0 °F 62% 29.86 in 10.0 mi East 5.8 mph - N/A   Partly Cloudy
7:53 PM 78.1 °F - 66.9 °F 68% 29.89 in 10.0 mi East 3.5 mph - N/A   Partly Cloudy
8:53 PM 77.0 °F - 66.9 °F 71% 29.93 in 10.0 mi ENE 6.9 mph - N/A   Mostly Cloudy
9:13 PM 77.0 °F - 66.2 °F 69% 29.97 in 10.0 mi NE 5.8 mph - N/A Thunderstorm Mostly Cloudy
9:53 PM 72.0 °F - 68.0 °F 87% 30.03 in 2.0 mi West 8.1 mph - 0.09 in Rain , Thunderstorm Heavy Thunderstorms and Rain
10:03 PM 69.8 °F - 66.2 °F 88% 30.04 in 1.5 mi WNW 20.7 mph 27.6 mph 0.05 in Rain , Thunderstorm Heavy Thunderstorms and Rain
10:29 PM 68.0 °F - 64.4 °F 88% 30.07 in 2.0 mi West 8.1 mph - 0.22 in Rain , Thunderstorm Heavy Thunderstorms and Rain
10:38 PM 68.0 °F - 66.2 °F 94% 30.07 in 5.0 mi SW 5.8 mph - 0.29 in Rain , Thunderstorm Light Thunderstorms and Rain
10:53 PM 66.9 °F - 64.9 °F 93% 30.06 in 5.0 mi WSW 5.8 mph - 0.39 in Rain , Thunderstorm Thunderstorms and Rain
11:43 PM 68.0 °F - 66.2 °F 94% 30.00 in 10.0 mi NNW 9.2 mph - 0.32 in Rain Light Rain
11:53 PM 68.0 °F - 66.0 °F 93% 29.98 in 10.0 mi NE 8.1 mph - 0.38 in   Partly Cloudy